Year,Month,Day,Hour,Minute,Value (Times are PST for temperature in C)
2022,05,13,00,00,5.10
2022,05,13,00,01,5.10
2022,05,13,00,02,5.10
2022,05,13,00,03,5.10
2022,05,13,00,04,5.10
2022,05,13,00,05,5.10
2022,05,13,00,06,5.10
2022,05,13,00,07,5.10
2022,05,13,00,08,5.10
2022,05,13,00,09,5.10
2022,05,13,00,10,5.10
2022,05,13,00,11,5.10
2022,05,13,00,12,5.10
2022,05,13,00,13,5.10
2022,05,13,00,14,5.10
2022,05,13,00,15,5.20
2022,05,13,00,16,5.20
2022,05,13,00,17,5.20
2022,05,13,00,18,5.20
2022,05,13,00,19,5.20
2022,05,13,00,20,5.20
2022,05,13,00,21,5.20
2022,05,13,00,22,5.20
2022,05,13,00,23,5.20
2022,05,13,00,24,5.20
2022,05,13,00,25,5.20
2022,05,13,00,26,5.20
2022,05,13,00,27,5.20
2022,05,13,00,28,5.20
2022,05,13,00,29,5.20
2022,05,13,00,30,5.20
2022,05,13,00,31,5.20
2022,05,13,00,32,5.20
2022,05,13,00,33,5.20
2022,05,13,00,34,5.20
2022,05,13,00,35,5.20
2022,05,13,00,36,5.20
2022,05,13,00,37,5.20
2022,05,13,00,38,5.20
2022,05,13,00,39,5.20
2022,05,13,00,40,5.20
2022,05,13,00,41,5.20
2022,05,13,00,42,5.20
2022,05,13,00,43,5.20
2022,05,13,00,44,5.20
2022,05,13,00,45,5.20
2022,05,13,00,46,5.20
2022,05,13,00,47,5.20
2022,05,13,00,48,5.20
2022,05,13,00,49,5.20
2022,05,13,00,50,5.20
2022,05,13,00,51,5.20
2022,05,13,00,52,5.20
2022,05,13,00,53,5.20
2022,05,13,00,54,5.20
2022,05,13,00,55,5.20
2022,05,13,00,56,5.20
2022,05,13,00,57,5.20
2022,05,13,00,58,5.20
2022,05,13,00,59,5.20
2022,05,13,01,00,5.20
2022,05,13,01,01,5.20
2022,05,13,01,02,5.20
2022,05,13,01,03,5.20
2022,05,13,01,04,5.20
2022,05,13,01,05,5.20
2022,05,13,01,06,5.20
2022,05,13,01,07,5.20
2022,05,13,01,08,5.20
2022,05,13,01,09,5.20
2022,05,13,01,10,5.20
2022,05,13,01,11,5.20
2022,05,13,01,12,5.20
2022,05,13,01,13,5.20
2022,05,13,01,14,5.10
2022,05,13,01,15,5.10
2022,05,13,01,16,5.10
2022,05,13,01,17,5.10
2022,05,13,01,18,5.10
2022,05,13,01,19,5.10
2022,05,13,01,20,5.10
2022,05,13,01,21,5.10
2022,05,13,01,22,5.10
2022,05,13,01,23,5.00
2022,05,13,01,24,5.00
2022,05,13,01,25,5.00
2022,05,13,01,26,5.00
2022,05,13,01,27,5.00
2022,05,13,01,28,5.00
2022,05,13,01,29,5.00
2022,05,13,01,30,5.00
2022,05,13,01,31,4.90
2022,05,13,01,32,4.90
2022,05,13,01,33,4.90
2022,05,13,01,34,4.90
2022,05,13,01,35,4.90
2022,05,13,01,36,4.80
2022,05,13,01,37,4.80
2022,05,13,01,38,4.80
2022,05,13,01,39,4.80
2022,05,13,01,40,4.80
2022,05,13,01,41,4.80
2022,05,13,01,42,4.80
2022,05,13,01,43,4.70
2022,05,13,01,44,4.70
2022,05,13,01,45,4.70
2022,05,13,01,46,4.70
2022,05,13,01,47,4.70
2022,05,13,01,48,4.60
2022,05,13,01,49,4.60
2022,05,13,01,50,4.60
2022,05,13,01,51,4.60
2022,05,13,01,52,4.60
2022,05,13,01,53,4.60
2022,05,13,01,54,4.50
2022,05,13,01,55,4.50
2022,05,13,01,56,4.50
2022,05,13,01,57,4.50
2022,05,13,01,58,4.40
2022,05,13,01,59,4.40
2022,05,13,02,00,4.40
2022,05,13,02,01,4.40
2022,05,13,02,02,4.40
2022,05,13,02,03,4.30
2022,05,13,02,04,4.30
2022,05,13,02,05,4.30
2022,05,13,02,06,4.30
2022,05,13,02,07,4.30
2022,05,13,02,08,4.30
2022,05,13,02,09,4.20
2022,05,13,02,10,4.20
2022,05,13,02,11,4.20
2022,05,13,02,12,4.20
2022,05,13,02,13,4.20
2022,05,13,02,14,4.10
2022,05,13,02,15,4.10
2022,05,13,02,16,4.10
2022,05,13,02,17,4.00
2022,05,13,02,18,4.00
2022,05,13,02,19,4.00
2022,05,13,02,20,3.90
2022,05,13,02,21,3.90
2022,05,13,02,22,3.90
2022,05,13,02,23,3.90
2022,05,13,02,24,3.90
2022,05,13,02,25,3.90
2022,05,13,02,26,3.90
2022,05,13,02,27,3.90
2022,05,13,02,28,3.80
2022,05,13,02,29,3.80
2022,05,13,02,30,3.80
2022,05,13,02,31,3.80
2022,05,13,02,32,3.80
2022,05,13,02,33,3.80
2022,05,13,02,34,3.80
2022,05,13,02,35,3.80
2022,05,13,02,36,3.80
2022,05,13,02,37,3.80
2022,05,13,02,38,3.70
2022,05,13,02,39,3.70
2022,05,13,02,40,3.70
2022,05,13,02,41,3.70
2022,05,13,02,42,3.70
2022,05,13,02,43,3.70
2022,05,13,02,44,3.70
2022,05,13,02,45,3.70
2022,05,13,02,46,3.70
2022,05,13,02,47,3.70
2022,05,13,02,48,3.70
2022,05,13,02,49,3.70
2022,05,13,02,50,3.70
2022,05,13,02,51,3.70
2022,05,13,02,52,3.70
2022,05,13,02,53,3.70
2022,05,13,02,54,3.70
2022,05,13,02,55,3.70
2022,05,13,02,56,3.70
2022,05,13,02,57,3.70
2022,05,13,02,58,3.60
2022,05,13,02,59,3.60
2022,05,13,03,00,3.60
2022,05,13,03,01,3.60
2022,05,13,03,02,3.60
2022,05,13,03,03,3.50
2022,05,13,03,04,3.50
2022,05,13,03,05,3.50
2022,05,13,03,06,3.40
2022,05,13,03,07,3.40
2022,05,13,03,08,3.40
2022,05,13,03,09,3.50
2022,05,13,03,10,3.50
2022,05,13,03,11,3.50
2022,05,13,03,12,3.50
2022,05,13,03,13,3.50
2022,05,13,03,14,3.40
2022,05,13,03,15,3.40
2022,05,13,03,16,3.40
2022,05,13,03,17,3.40
2022,05,13,03,18,3.40
2022,05,13,03,19,3.30
2022,05,13,03,20,3.30
2022,05,13,03,21,3.30
2022,05,13,03,22,3.30
2022,05,13,03,23,3.30
2022,05,13,03,24,3.30
2022,05,13,03,25,3.30
2022,05,13,03,26,3.30
2022,05,13,03,27,3.20
2022,05,13,03,28,3.20
2022,05,13,03,29,3.20
2022,05,13,03,30,3.20
2022,05,13,03,31,3.20
2022,05,13,03,32,3.20
2022,05,13,03,33,3.20
2022,05,13,03,34,3.20
2022,05,13,03,35,3.20
2022,05,13,03,36,3.10
2022,05,13,03,37,3.10
2022,05,13,03,38,3.10
2022,05,13,03,39,3.10
2022,05,13,03,40,3.10
2022,05,13,03,41,3.10
2022,05,13,03,42,3.10
2022,05,13,03,43,3.00
2022,05,13,03,44,3.00
2022,05,13,03,45,3.00
2022,05,13,03,46,3.00
2022,05,13,03,47,3.00
2022,05,13,03,48,2.90
2022,05,13,03,49,2.90
2022,05,13,03,50,2.90
2022,05,13,03,51,2.90
2022,05,13,03,52,2.90
2022,05,13,03,53,2.90
2022,05,13,03,54,2.90
2022,05,13,03,55,2.80
2022,05,13,03,56,2.80
2022,05,13,03,57,2.80
2022,05,13,03,58,2.80
2022,05,13,03,59,2.80
2022,05,13,04,00,2.80
2022,05,13,04,01,2.80
2022,05,13,04,02,2.80
2022,05,13,04,03,2.80
2022,05,13,04,04,2.80
2022,05,13,04,05,2.70
2022,05,13,04,06,2.70
2022,05,13,04,07,2.70
2022,05,13,04,08,2.70
2022,05,13,04,09,2.70
2022,05,13,04,10,2.70
2022,05,13,04,11,2.60
2022,05,13,04,12,2.60
2022,05,13,04,13,2.60
2022,05,13,04,14,2.60
2022,05,13,04,15,2.60
2022,05,13,04,16,2.60
2022,05,13,04,17,2.60
2022,05,13,04,18,2.50
2022,05,13,04,19,2.50
2022,05,13,04,20,2.50
2022,05,13,04,21,2.50
2022,05,13,04,22,2.50
2022,05,13,04,23,2.50
2022,05,13,04,24,2.50
2022,05,13,04,25,2.50
2022,05,13,04,26,2.40
2022,05,13,04,27,2.40
2022,05,13,04,28,2.40
2022,05,13,04,29,2.40
2022,05,13,04,30,2.40
2022,05,13,04,31,2.40
2022,05,13,04,32,2.40
2022,05,13,04,33,2.40
2022,05,13,04,34,2.40
2022,05,13,04,35,2.30
2022,05,13,04,36,2.30
2022,05,13,04,37,2.30
2022,05,13,04,38,2.30
2022,05,13,04,39,2.30
2022,05,13,04,40,2.30
2022,05,13,04,41,2.30
2022,05,13,04,42,2.20
2022,05,13,04,43,2.20
2022,05,13,04,44,2.20
2022,05,13,04,45,2.20
2022,05,13,04,46,2.20
2022,05,13,04,47,2.10
2022,05,13,04,48,2.10
2022,05,13,04,49,2.10
2022,05,13,04,50,2.10
2022,05,13,04,51,2.10
2022,05,13,04,52,2.10
2022,05,13,04,53,2.10
2022,05,13,04,54,2.10
2022,05,13,04,55,2.00
2022,05,13,04,56,2.10
2022,05,13,04,57,2.00
2022,05,13,04,58,2.00
2022,05,13,04,59,2.00
2022,05,13,05,00,2.00
2022,05,13,05,01,2.00
2022,05,13,05,02,2.00
2022,05,13,05,03,1.90
2022,05,13,05,04,1.90
2022,05,13,05,05,1.90
2022,05,13,05,06,1.90
2022,05,13,05,07,1.90
2022,05,13,05,08,1.90
2022,05,13,05,09,1.90
2022,05,13,05,10,1.90
2022,05,13,05,11,1.90
2022,05,13,05,12,1.90
2022,05,13,05,13,1.90
2022,05,13,05,14,1.90
2022,05,13,05,15,1.90
2022,05,13,05,16,1.90
2022,05,13,05,17,1.90
2022,05,13,05,18,1.90
2022,05,13,05,19,1.90
2022,05,13,05,20,1.90
2022,05,13,05,21,1.80
2022,05,13,05,22,1.80
2022,05,13,05,23,1.80
2022,05,13,05,24,1.80
2022,05,13,05,25,1.80
2022,05,13,05,26,1.80
2022,05,13,05,27,1.80
2022,05,13,05,28,1.80
2022,05,13,05,29,1.80
2022,05,13,05,30,1.80
2022,05,13,05,31,1.80
2022,05,13,05,32,1.80
2022,05,13,05,33,1.80
2022,05,13,05,34,1.80
2022,05,13,05,35,1.80
2022,05,13,05,36,1.80
2022,05,13,05,37,1.70
2022,05,13,05,38,1.70
2022,05,13,05,39,1.70
2022,05,13,05,40,1.70
2022,05,13,05,41,1.70
2022,05,13,05,42,1.60
2022,05,13,05,43,1.60
2022,05,13,05,44,1.60
2022,05,13,05,45,1.70
2022,05,13,05,46,1.70
2022,05,13,05,47,1.70
2022,05,13,05,48,1.70
2022,05,13,05,49,1.70
2022,05,13,05,50,1.70
2022,05,13,05,51,1.70
2022,05,13,05,52,1.70
2022,05,13,05,53,1.70
2022,05,13,05,54,1.70
2022,05,13,05,55,1.60
2022,05,13,05,56,1.60
2022,05,13,05,57,1.60
2022,05,13,05,58,1.60
2022,05,13,05,59,1.60
2022,05,13,06,00,1.60
2022,05,13,06,01,1.60
2022,05,13,06,02,1.60
2022,05,13,06,03,1.60
2022,05,13,06,04,1.60
2022,05,13,06,05,1.60
2022,05,13,06,06,1.60
2022,05,13,06,07,1.60
2022,05,13,06,08,1.60
2022,05,13,06,09,1.60
2022,05,13,06,10,1.60
2022,05,13,06,11,1.60
2022,05,13,06,12,1.60
2022,05,13,06,13,1.60
2022,05,13,06,14,1.60
2022,05,13,06,15,1.70
2022,05,13,06,16,1.70
2022,05,13,06,17,1.70
2022,05,13,06,18,1.70
2022,05,13,06,19,1.70
2022,05,13,06,20,1.70
2022,05,13,06,21,1.70
2022,05,13,06,22,1.70
2022,05,13,06,23,1.80
2022,05,13,06,24,1.80
2022,05,13,06,25,1.80
2022,05,13,06,26,1.80
2022,05,13,06,27,1.80
2022,05,13,06,28,1.80
2022,05,13,06,29,1.90
2022,05,13,06,30,1.90
2022,05,13,06,31,1.90
2022,05,13,06,32,1.90
2022,05,13,06,33,1.90
2022,05,13,06,34,2.00
2022,05,13,06,35,2.00
2022,05,13,06,36,2.10
2022,05,13,06,37,2.10
2022,05,13,06,38,2.10
2022,05,13,06,39,2.10
2022,05,13,06,40,2.10
2022,05,13,06,41,2.10
2022,05,13,06,42,2.10
2022,05,13,06,43,2.20
2022,05,13,06,44,2.20
2022,05,13,06,45,2.20
2022,05,13,06,46,2.20
2022,05,13,06,47,2.20
2022,05,13,06,48,2.30
2022,05,13,06,49,2.40
2022,05,13,06,50,2.40
2022,05,13,06,51,2.50
2022,05,13,06,52,2.50
2022,05,13,06,53,2.50
2022,05,13,06,54,2.50
2022,05,13,06,55,2.40
2022,05,13,06,56,2.40
2022,05,13,06,57,2.40
2022,05,13,06,58,2.40
2022,05,13,06,59,2.30
2022,05,13,07,00,2.30
2022,05,13,07,01,2.30
2022,05,13,07,02,2.30
2022,05,13,07,03,2.30
2022,05,13,07,04,2.30
2022,05,13,07,05,2.30
2022,05,13,07,06,2.30
2022,05,13,07,07,2.30
2022,05,13,07,08,2.30
2022,05,13,07,09,2.30
2022,05,13,07,10,2.30
2022,05,13,07,11,2.30
2022,05,13,07,12,2.20
2022,05,13,07,13,2.30
2022,05,13,07,14,2.30
2022,05,13,07,15,2.30
2022,05,13,07,16,2.30
2022,05,13,07,17,2.30
2022,05,13,07,18,2.30
2022,05,13,07,19,2.30
2022,05,13,07,20,2.30
2022,05,13,07,21,2.30
2022,05,13,07,22,2.30
2022,05,13,07,23,2.30
2022,05,13,07,24,2.30
2022,05,13,07,25,2.30
2022,05,13,07,26,2.30
2022,05,13,07,27,2.40
2022,05,13,07,28,2.40
2022,05,13,07,29,2.40
2022,05,13,07,30,2.50
2022,05,13,07,31,2.50
2022,05,13,07,32,2.60
2022,05,13,07,33,2.60
2022,05,13,07,34,2.60
2022,05,13,07,35,2.70
2022,05,13,07,36,2.70
2022,05,13,07,37,2.70
2022,05,13,07,38,2.70
2022,05,13,07,39,2.70
2022,05,13,07,40,2.70
2022,05,13,07,41,2.80
2022,05,13,07,42,2.80
2022,05,13,07,43,2.90
2022,05,13,07,44,3.00
2022,05,13,07,45,3.10
2022,05,13,07,46,3.20
2022,05,13,07,47,3.20
2022,05,13,07,48,3.30
2022,05,13,07,49,3.30
2022,05,13,07,50,3.40
2022,05,13,07,51,3.40
2022,05,13,07,52,3.40
2022,05,13,07,53,3.50
2022,05,13,07,54,3.50
2022,05,13,07,55,3.50
2022,05,13,07,56,3.60
2022,05,13,07,57,3.60
2022,05,13,07,58,3.60
2022,05,13,07,59,3.60
2022,05,13,08,00,3.60
2022,05,13,08,01,3.60
2022,05,13,08,02,3.70
2022,05,13,08,03,3.70
2022,05,13,08,04,3.80
2022,05,13,08,05,3.80
2022,05,13,08,06,3.80
2022,05,13,08,07,3.80
2022,05,13,08,08,3.80
2022,05,13,08,09,3.80
2022,05,13,08,10,3.80
2022,05,13,08,11,3.90
2022,05,13,08,12,4.00
2022,05,13,08,13,4.00
2022,05,13,08,14,4.10
2022,05,13,08,15,4.10
2022,05,13,08,16,4.10
2022,05,13,08,17,4.20
2022,05,13,08,18,4.20
2022,05,13,08,19,4.20
2022,05,13,08,20,4.20
2022,05,13,08,21,4.30
2022,05,13,08,22,4.30
2022,05,13,08,23,4.30
2022,05,13,08,24,4.30
2022,05,13,08,25,4.30
2022,05,13,08,26,4.30
2022,05,13,08,27,4.40
2022,05,13,08,28,4.40
2022,05,13,08,29,4.40
2022,05,13,08,30,4.50
2022,05,13,08,31,4.50
2022,05,13,08,32,4.50
2022,05,13,08,33,4.50
2022,05,13,08,34,4.50
2022,05,13,08,35,4.60
2022,05,13,08,36,4.60
2022,05,13,08,37,4.70
2022,05,13,08,38,4.70
2022,05,13,08,39,4.70
2022,05,13,08,40,4.80
2022,05,13,08,41,4.90
2022,05,13,08,42,5.00
2022,05,13,08,43,5.10
2022,05,13,08,44,5.20
2022,05,13,08,45,5.20
2022,05,13,08,46,5.20
2022,05,13,08,47,5.20
2022,05,13,08,48,5.20
2022,05,13,08,49,5.20
2022,05,13,08,50,5.20
2022,05,13,08,51,5.30
2022,05,13,08,52,5.40
2022,05,13,08,53,5.50
2022,05,13,08,54,5.50
2022,05,13,08,55,5.50
2022,05,13,08,56,5.60
2022,05,13,08,57,5.60
2022,05,13,08,58,5.70
2022,05,13,08,59,5.70
2022,05,13,09,00,5.70
2022,05,13,09,01,5.70
2022,05,13,09,02,5.70
2022,05,13,09,03,5.60
2022,05,13,09,04,5.60
2022,05,13,09,05,5.60
2022,05,13,09,06,5.50
2022,05,13,09,07,5.50
2022,05,13,09,08,5.50
2022,05,13,09,09,5.50
2022,05,13,09,10,5.50
2022,05,13,09,11,5.50
2022,05,13,09,12,5.50
2022,05,13,09,13,5.60
2022,05,13,09,14,5.60
2022,05,13,09,15,5.60
2022,05,13,09,16,5.60
2022,05,13,09,17,5.70
2022,05,13,09,18,5.70
2022,05,13,09,19,5.70
2022,05,13,09,20,5.70
2022,05,13,09,21,5.80
2022,05,13,09,22,5.80
2022,05,13,09,23,5.90
2022,05,13,09,24,6.00
2022,05,13,09,25,6.00
2022,05,13,09,26,6.10
2022,05,13,09,27,6.10
2022,05,13,09,28,6.20
2022,05,13,09,29,6.30
2022,05,13,09,30,6.30
2022,05,13,09,31,6.40
2022,05,13,09,32,6.40
2022,05,13,09,33,6.40
2022,05,13,09,34,6.40
2022,05,13,09,35,6.50
2022,05,13,09,36,6.50
2022,05,13,09,37,6.50
2022,05,13,09,38,6.60
2022,05,13,09,39,6.60
2022,05,13,09,40,6.70
2022,05,13,09,41,6.80
2022,05,13,09,42,6.90
2022,05,13,09,43,7.00
2022,05,13,09,44,7.10
2022,05,13,09,45,7.20
2022,05,13,09,46,7.20
2022,05,13,09,47,7.30
2022,05,13,09,48,7.40
2022,05,13,09,49,7.40
2022,05,13,09,50,7.50
2022,05,13,09,51,7.50
2022,05,13,09,52,7.50
2022,05,13,09,53,7.60
2022,05,13,09,54,7.60
2022,05,13,09,55,7.70
2022,05,13,09,56,7.80
2022,05,13,09,57,7.90
2022,05,13,09,58,8.00
2022,05,13,09,59,8.00
2022,05,13,10,00,8.10
2022,05,13,10,01,8.20
2022,05,13,10,02,8.20
2022,05,13,10,03,8.30
2022,05,13,10,04,8.30
2022,05,13,10,05,8.30
2022,05,13,10,06,8.30
2022,05,13,10,07,8.30
2022,05,13,10,08,8.30
2022,05,13,10,09,8.30
2022,05,13,10,10,8.30
2022,05,13,10,11,8.30
2022,05,13,10,12,8.30
2022,05,13,10,13,8.30
2022,05,13,10,14,8.30
2022,05,13,10,15,8.30
2022,05,13,10,16,8.40
2022,05,13,10,17,8.40
2022,05,13,10,18,8.40
2022,05,13,10,19,8.40
2022,05,13,10,20,8.40
2022,05,13,10,21,8.40
2022,05,13,10,22,8.40
2022,05,13,10,23,8.40
2022,05,13,10,24,8.30
2022,05,13,10,25,8.30
2022,05,13,10,26,8.30
2022,05,13,10,27,8.40
2022,05,13,10,28,8.40
2022,05,13,10,29,8.40
2022,05,13,10,30,8.40
2022,05,13,10,31,8.40
2022,05,13,10,32,8.40
2022,05,13,10,33,8.40
2022,05,13,10,34,8.50
2022,05,13,10,35,8.50
2022,05,13,10,36,8.50
2022,05,13,10,37,8.50
2022,05,13,10,38,8.60
2022,05,13,10,39,8.60
2022,05,13,10,40,8.60
2022,05,13,10,41,8.60
2022,05,13,10,42,8.70
2022,05,13,10,43,8.70
2022,05,13,10,44,8.90
2022,05,13,10,45,9.00
2022,05,13,10,46,9.10
2022,05,13,10,47,9.10
2022,05,13,10,48,9.10
2022,05,13,10,49,9.10
2022,05,13,10,50,9.10
2022,05,13,10,51,9.10
2022,05,13,10,52,9.10
2022,05,13,10,53,9.00
2022,05,13,10,54,9.00
2022,05,13,10,55,9.00
2022,05,13,10,56,8.90
2022,05,13,10,57,8.90
2022,05,13,10,58,8.90
2022,05,13,10,59,9.00
2022,05,13,11,00,9.10
2022,05,13,11,01,9.10
2022,05,13,11,02,9.20
2022,05,13,11,03,9.30
2022,05,13,11,04,9.40
2022,05,13,11,05,9.40
2022,05,13,11,06,9.50
2022,05,13,11,07,9.60
2022,05,13,11,08,9.60
2022,05,13,11,09,9.60
2022,05,13,11,10,9.60
2022,05,13,11,11,9.60
2022,05,13,11,12,9.60
2022,05,13,11,13,9.60
2022,05,13,11,14,9.50
2022,05,13,11,15,9.50
2022,05,13,11,16,9.50
2022,05,13,11,17,9.60
2022,05,13,11,18,9.70
2022,05,13,11,19,9.80
2022,05,13,11,20,9.80
2022,05,13,11,21,9.90
2022,05,13,11,22,9.90
2022,05,13,11,23,10.00
2022,05,13,11,24,10.00
2022,05,13,11,25,10.10
2022,05,13,11,26,10.10
2022,05,13,11,27,10.10
2022,05,13,11,28,10.10
2022,05,13,11,29,10.10
2022,05,13,11,30,10.20
2022,05,13,11,31,10.20
2022,05,13,11,32,10.20
2022,05,13,11,33,10.20
2022,05,13,11,34,10.20
2022,05,13,11,35,10.20
2022,05,13,11,36,10.20
2022,05,13,11,37,10.30
2022,05,13,11,38,10.30
2022,05,13,11,39,10.30
2022,05,13,11,40,10.40
2022,05,13,11,41,10.40
2022,05,13,11,42,10.50
2022,05,13,11,43,10.50
2022,05,13,11,44,10.70
2022,05,13,11,45,10.70
2022,05,13,11,46,10.70
2022,05,13,11,47,10.70
2022,05,13,11,48,10.80
2022,05,13,11,49,10.80
2022,05,13,11,50,10.80
2022,05,13,11,51,10.80
2022,05,13,11,52,10.80
2022,05,13,11,53,10.80
2022,05,13,11,54,10.70
2022,05,13,11,55,10.70
2022,05,13,11,56,10.80
2022,05,13,11,57,10.80
2022,05,13,11,58,10.80
2022,05,13,11,59,10.80
2022,05,13,12,00,10.70
2022,05,13,12,01,10.70
2022,05,13,12,02,10.60
2022,05,13,12,03,10.60
2022,05,13,12,04,10.60
2022,05,13,12,05,10.60
2022,05,13,12,06,10.60
2022,05,13,12,07,10.60
2022,05,13,12,08,10.60
2022,05,13,12,09,10.60
2022,05,13,12,10,10.60
2022,05,13,12,11,10.70
2022,05,13,12,12,10.60
2022,05,13,12,13,10.60
2022,05,13,12,14,10.70
2022,05,13,12,15,10.70
2022,05,13,12,16,10.70
2022,05,13,12,17,10.70
2022,05,13,12,18,10.70
2022,05,13,12,19,10.70
2022,05,13,12,20,10.70
2022,05,13,12,21,10.60
2022,05,13,12,22,10.60
2022,05,13,12,23,10.60
2022,05,13,12,24,10.60
2022,05,13,12,25,10.60
2022,05,13,12,26,10.60
2022,05,13,12,27,10.60
2022,05,13,12,28,10.60
2022,05,13,12,29,10.60
2022,05,13,12,30,10.60
2022,05,13,12,31,10.60
2022,05,13,12,32,10.70
2022,05,13,12,33,10.70
2022,05,13,12,34,10.70
2022,05,13,12,35,10.70
2022,05,13,12,36,10.60
2022,05,13,12,37,10.60
2022,05,13,12,38,10.60
2022,05,13,12,39,10.60
2022,05,13,12,40,10.60
2022,05,13,12,41,10.60
2022,05,13,12,42,10.70
2022,05,13,12,43,10.70
2022,05,13,12,44,10.70
2022,05,13,12,45,10.70
2022,05,13,12,46,10.80
2022,05,13,12,47,10.80
2022,05,13,12,48,10.70
2022,05,13,12,49,10.70
2022,05,13,12,50,10.70
2022,05,13,12,51,10.70
2022,05,13,12,52,10.70
2022,05,13,12,53,10.70
2022,05,13,12,54,10.80
2022,05,13,12,55,10.80
2022,05,13,12,56,10.90
2022,05,13,12,57,11.00
2022,05,13,12,58,11.00
2022,05,13,12,59,11.10
2022,05,13,13,00,11.10
2022,05,13,13,01,11.10
2022,05,13,13,02,11.00
2022,05,13,13,03,11.00
2022,05,13,13,04,11.00
2022,05,13,13,05,11.00
2022,05,13,13,06,11.00
2022,05,13,13,07,11.00
2022,05,13,13,08,11.00
2022,05,13,13,09,11.00
2022,05,13,13,10,10.90
2022,05,13,13,11,10.90
2022,05,13,13,12,10.80
2022,05,13,13,13,10.80
2022,05,13,13,14,10.70
2022,05,13,13,15,10.70
2022,05,13,13,16,10.70
2022,05,13,13,17,10.60
2022,05,13,13,18,10.70
2022,05,13,13,19,10.70
2022,05,13,13,20,10.70
2022,05,13,13,21,10.60
2022,05,13,13,22,10.60
2022,05,13,13,23,10.60
2022,05,13,13,24,10.60
2022,05,13,13,25,10.60
2022,05,13,13,26,10.60
2022,05,13,13,27,10.60
2022,05,13,13,28,10.60
2022,05,13,13,29,10.60
2022,05,13,13,30,10.60
2022,05,13,13,31,10.60
2022,05,13,13,32,10.50
2022,05,13,13,33,10.50
2022,05,13,13,34,10.40
2022,05,13,13,35,10.40
2022,05,13,13,36,10.40
2022,05,13,13,37,10.40
2022,05,13,13,38,10.30
2022,05,13,13,39,10.30
2022,05,13,13,40,10.20
2022,05,13,13,41,10.20
2022,05,13,13,42,10.20
2022,05,13,13,43,10.20
2022,05,13,13,44,10.20
2022,05,13,13,45,10.20
2022,05,13,13,46,10.20
2022,05,13,13,47,10.20
2022,05,13,13,48,10.20
2022,05,13,13,49,10.20
2022,05,13,13,50,10.10
2022,05,13,13,51,10.10
2022,05,13,13,52,10.00
2022,05,13,13,53,10.00
2022,05,13,13,54,9.90
2022,05,13,13,55,9.90
2022,05,13,13,56,9.90
2022,05,13,13,57,9.90
2022,05,13,13,58,9.90
2022,05,13,13,59,9.90
2022,05,13,14,00,9.90
2022,05,13,14,01,9.90
2022,05,13,14,02,9.80
2022,05,13,14,03,9.80
2022,05,13,14,04,9.80
2022,05,13,14,05,9.80
2022,05,13,14,06,9.80
2022,05,13,14,07,9.80
2022,05,13,14,08,9.80
2022,05,13,14,09,9.70
2022,05,13,14,10,9.80
2022,05,13,14,11,9.80
2022,05,13,14,12,9.80
2022,05,13,14,13,9.90
2022,05,13,14,14,9.90
2022,05,13,14,15,9.90
2022,05,13,14,16,9.90
2022,05,13,14,17,10.00
2022,05,13,14,18,9.90
2022,05,13,14,19,9.90
2022,05,13,14,20,9.90
2022,05,13,14,21,9.80
2022,05,13,14,22,9.80
2022,05,13,14,23,9.80
2022,05,13,14,24,9.80
2022,05,13,14,25,9.80
2022,05,13,14,26,9.80
2022,05,13,14,27,9.80
2022,05,13,14,28,9.70
2022,05,13,14,29,9.70
2022,05,13,14,30,9.70
2022,05,13,14,31,9.70
2022,05,13,14,32,9.80
2022,05,13,14,33,9.80
2022,05,13,14,34,9.80
2022,05,13,14,35,9.80
2022,05,13,14,36,9.90
2022,05,13,14,37,10.00
2022,05,13,14,38,10.10
2022,05,13,14,39,10.20
2022,05,13,14,40,10.30
2022,05,13,14,41,10.30
2022,05,13,14,42,10.30
2022,05,13,14,43,10.40
2022,05,13,14,44,10.40
2022,05,13,14,45,10.40
2022,05,13,14,46,10.40
2022,05,13,14,47,10.40
2022,05,13,14,48,10.50
2022,05,13,14,49,10.50
2022,05,13,14,50,10.50
2022,05,13,14,51,10.50
2022,05,13,14,52,10.50
2022,05,13,14,53,10.50
2022,05,13,14,54,10.50
2022,05,13,14,55,10.60
2022,05,13,14,56,10.60
2022,05,13,14,57,10.60
2022,05,13,14,58,10.60
2022,05,13,14,59,10.60
2022,05,13,15,00,10.60
2022,05,13,15,01,10.60
2022,05,13,15,02,10.50
2022,05,13,15,03,10.50
2022,05,13,15,04,10.50
2022,05,13,15,05,10.40
2022,05,13,15,06,10.40
2022,05,13,15,07,10.50
2022,05,13,15,08,10.50
2022,05,13,15,09,10.50
2022,05,13,15,10,10.50
2022,05,13,15,11,10.50
2022,05,13,15,12,10.40
2022,05,13,15,13,10.40
2022,05,13,15,14,10.40
2022,05,13,15,15,10.40
2022,05,13,15,16,10.40
2022,05,13,15,17,10.40
2022,05,13,15,18,10.30
2022,05,13,15,19,10.20
2022,05,13,15,20,10.20
2022,05,13,15,21,10.10
2022,05,13,15,22,10.00
2022,05,13,15,23,10.00
2022,05,13,15,24,10.00
2022,05,13,15,25,10.00
2022,05,13,15,26,10.00
2022,05,13,15,27,10.00
2022,05,13,15,28,10.00
2022,05,13,15,29,10.00
2022,05,13,15,30,10.00
2022,05,13,15,31,10.00
2022,05,13,15,32,10.00
2022,05,13,15,33,10.00
2022,05,13,15,34,10.00
2022,05,13,15,35,10.00
2022,05,13,15,36,10.10
2022,05,13,15,37,10.00
2022,05,13,15,38,10.10
2022,05,13,15,39,10.10
2022,05,13,15,40,10.10
2022,05,13,15,41,10.10
2022,05,13,15,42,10.10
2022,05,13,15,43,10.10
2022,05,13,15,44,10.10
2022,05,13,15,45,10.10
2022,05,13,15,46,10.10
2022,05,13,15,47,10.20
2022,05,13,15,48,10.10
2022,05,13,15,49,10.10
2022,05,13,15,50,10.10
2022,05,13,15,51,10.10
2022,05,13,15,52,10.00
2022,05,13,15,53,10.00
2022,05,13,15,54,10.00
2022,05,13,15,55,10.00
2022,05,13,15,56,10.00
2022,05,13,15,57,10.00
2022,05,13,15,58,10.10
2022,05,13,15,59,10.10
2022,05,13,16,00,10.10
2022,05,13,16,01,10.10
2022,05,13,16,02,10.10
2022,05,13,16,03,10.00
2022,05,13,16,04,10.00
2022,05,13,16,05,10.00
2022,05,13,16,06,10.00
2022,05,13,16,07,10.10
2022,05,13,16,08,10.10
2022,05,13,16,09,10.10
2022,05,13,16,10,10.10
2022,05,13,16,11,10.20
2022,05,13,16,12,10.20
2022,05,13,16,13,10.20
2022,05,13,16,14,10.20
2022,05,13,16,15,10.20
2022,05,13,16,16,10.30
2022,05,13,16,17,10.30
2022,05,13,16,18,10.30
2022,05,13,16,19,10.30
2022,05,13,16,20,10.30
2022,05,13,16,21,10.30
2022,05,13,16,22,10.30
2022,05,13,16,23,10.30
2022,05,13,16,24,10.30
2022,05,13,16,25,10.40
2022,05,13,16,26,10.40
2022,05,13,16,27,10.40
2022,05,13,16,28,10.40
2022,05,13,16,29,10.40
2022,05,13,16,30,10.40
2022,05,13,16,31,10.40
2022,05,13,16,32,10.40
2022,05,13,16,33,10.40
2022,05,13,16,34,10.50
2022,05,13,16,35,10.50
2022,05,13,16,36,10.50
2022,05,13,16,37,10.50
2022,05,13,16,38,10.50
2022,05,13,16,39,10.50
2022,05,13,16,40,10.60
2022,05,13,16,41,10.50
2022,05,13,16,42,10.60
2022,05,13,16,43,10.60
2022,05,13,16,44,10.60
2022,05,13,16,45,10.60
2022,05,13,16,46,10.70
2022,05,13,16,47,10.70
2022,05,13,16,48,10.70
2022,05,13,16,49,10.70
2022,05,13,16,50,10.70
2022,05,13,16,51,10.70
2022,05,13,16,52,10.60
2022,05,13,16,53,10.60
2022,05,13,16,54,10.60
2022,05,13,16,55,10.60
2022,05,13,16,56,10.50
2022,05,13,16,57,10.50
2022,05,13,16,58,10.40
2022,05,13,16,59,10.40
2022,05,13,17,00,10.40
2022,05,13,17,01,10.40
2022,05,13,17,02,10.30
2022,05,13,17,03,10.30
2022,05,13,17,04,10.30
2022,05,13,17,05,10.30
2022,05,13,17,06,10.20
2022,05,13,17,07,10.20
2022,05,13,17,08,10.10
2022,05,13,17,09,10.00
2022,05,13,17,10,9.90
2022,05,13,17,11,9.80
2022,05,13,17,12,9.70
2022,05,13,17,13,9.60
2022,05,13,17,14,9.40
2022,05,13,17,15,9.30
2022,05,13,17,16,9.20
2022,05,13,17,17,9.00
2022,05,13,17,18,8.90
2022,05,13,17,19,8.80
2022,05,13,17,20,8.70
2022,05,13,17,21,8.60
2022,05,13,17,22,8.50
2022,05,13,17,23,8.50
2022,05,13,17,24,8.40
2022,05,13,17,25,8.30
2022,05,13,17,26,8.30
2022,05,13,17,27,8.30
2022,05,13,17,28,8.20
2022,05,13,17,29,8.20
2022,05,13,17,30,8.20
2022,05,13,17,31,8.20
2022,05,13,17,32,8.20
2022,05,13,17,33,8.20
2022,05,13,17,34,8.20
2022,05,13,17,35,8.20
2022,05,13,17,36,8.20
2022,05,13,17,37,8.20
2022,05,13,17,38,8.20
2022,05,13,17,39,8.20
2022,05,13,17,40,8.20
2022,05,13,17,41,8.20
2022,05,13,17,42,8.20
2022,05,13,17,43,8.20
2022,05,13,17,44,8.20
2022,05,13,17,45,8.20
2022,05,13,17,46,8.20
2022,05,13,17,47,8.20
2022,05,13,17,48,8.20
2022,05,13,17,49,8.20
2022,05,13,17,50,8.20
2022,05,13,17,51,8.10
2022,05,13,17,52,8.10